[[{"header":{"parameterUnit":"m.s-1","parameterCategory":1,"la1":30.2991,"la2":30.254,"lo1":-89.0895,"lo2":-89.0444,"dy":0.0017,"dx":0.0017,"nx":28,"ny":28,"refTime":"2023-10-22T09:00:00:Z","depth":0,"parameterNumber":2,"parameterNumberName":"U-component_of_WINDS"},"data":[0,0,0,0,0,0,0,0,0,0,0,0,0,0,0,0,0,0,0,0,0,0,0,0,0,0,0,0,0,0,0,0,0,0,0,0,0,0,0,0,0,0,0,0,0,0,0,0,0,0,0,0,0,0,0,0,0,0,0.5644,0.5644,0,0.5727,0.5728,0.5729,0.5741,0.574,0.574,0.5739,0.5827,0.583,0.5833,0,0,0,0,0,0,0,0,0,0,0,0,0,0.5496,0.5499,0.5643,0.5644,0.5646,0.5727,0.5728,0.5729,0.5741,0.574,0.5739,0.5738,0.5826,0.583,0.5833,0,0,0,0,0,0,0,0,0,0,0,0,0,0.5568,0.55,0.5643,0.5661,0.5664,0.5727,0.5728,0.573,0.5741,0.574,0.5739,0.5738,0.5825,0.5829,0.5834,0.5886,0,0,0.5848,0.585,0,0,0,0,0,0,0,0,0.5564,0.5573,0.5658,0.566,0.5663,0.5722,0.5709,0.5782,0.5742,0.5712,0.5739,0.5737,0.5793,0.58,0.5819,0.589,0.5893,0.5848,0.5851,0.5853,0.5854,0,0,0,0,0,0,0,0.5559,0.557,0.5677,0.5659,0.5662,0.5666,0.5675,0.5722,0.5758,0.5714,0.5716,0.5725,0.5795,0.5814,0.5821,0.5895,0.5848,0.5852,0.5855,0.5857,0.6012,0.6013,0,0,0,0,0,0,0.555,0.5566,0.5674,0.5679,0.5609,0.5669,0.5679,0.5705,0.5758,0.5765,0.5726,0.5725,0.5807,0.5816,0.5824,0.5888,0.5853,0.5857,0.586,0.6011,0.6012,0.6014,0,0,0,0,0,0,0.5547,0.556,0.5671,0.5623,0.5637,0.5673,0.5701,0.5707,0.5726,0.5766,0.5773,0.5739,0.5806,0.5818,0.587,0.5891,0.586,0.5864,0.6009,0.6011,0.6013,0.6015,0,0,0,0,0,0,0.5543,0.5559,0.5578,0.5623,0.564,0.5714,0.5703,0.5709,0.5734,0.5734,0.5781,0.5787,0.5806,0.5863,0.5874,0.5897,0.5867,0.6007,0.601,0.6012,0.6013,0.6017,0.602,0,0,0,0,0,0.5538,0.5576,0.5579,0.5592,0.5665,0.5715,0.5725,0.5745,0.5736,0.5756,0.5781,0.5786,0.5887,0.5868,0.5881,0.5905,0.6006,0.6009,0.6012,0.6012,0.6016,0.602,0,0,0,0,0,0,0.5534,0.5582,0.5586,0.564,0.5673,0.5717,0.5743,0.5749,0.5787,0.5785,0.581,0.582,0.5871,0.5894,0.5872,0.5958,0.5946,0.5951,0.5941,0.5946,0.5949,0.5942,0.5871,0,0,0,0,0,0.5539,0.5575,0.5616,0.566,0.5677,0.5707,0.573,0.5743,0.5778,0.5793,0.5822,0.5858,0.5897,0.5923,0.5961,0.6017,0.6027,0.604,0.6043,0.6046,0.605,0.6081,0.6087,0.6024,0.6024,0.6024,0,0,0.5551,0.5582,0.5603,0.566,0.5687,0.5725,0.5719,0.5759,0.5788,0.5799,0.585,0.5873,0.5914,0.5968,0.5993,0.5988,0.607,0.605,0.6051,0.6055,0.6085,0.609,0.6096,0.6026,0.6025,0.6025,0,0,0.5591,0.5618,0.5657,0.5684,0.5725,0.5745,0.5755,0.5798,0.5813,0.5864,0.5873,0.5908,0.5976,0.6004,0.6028,0.6078,0.6084,0.6091,0.6108,0.6137,0.6142,0.6147,0.6164,0.6171,0.6095,0.6095,0.6095,0,0.56,0.5656,0.5677,0.5716,0.5741,0.5753,0.5793,0.5818,0.587,0.5887,0.5881,0.5966,0.5994,0.6054,0.6067,0.6086,0.6097,0.6085,0.614,0.6145,0.6149,0.6166,0.6173,0.6096,0.6096,0.6095,0.6095,0,0.5666,0.5705,0.5732,0.578,0.5808,0.5848,0.5874,0.59,0.5911,0.5931,0.5983,0.6018,0.6063,0.6079,0.609,0.6141,0.6136,0.6135,0.6123,0.6155,0.6172,0.6178,0.6096,0.6096,0.6096,0.6096,0,0,0.5705,0.5764,0.5774,0.5796,0.5842,0.5873,0.5913,0.5957,0.5978,0.6014,0.6048,0.6105,0.6104,0.613,0.6145,0.6171,0.6208,0.6166,0.6167,0.6172,0.6266,0.6266,0.6273,0.6212,0.6213,0.6214,0.6262,0,0.575,0.5821,0.5841,0.5902,0.5938,0.5949,0.5984,0.6017,0.6037,0.6072,0.6095,0.6134,0.613,0.6146,0.6172,0.6198,0.6227,0.6195,0.6244,0.6246,0.6233,0.6282,0.6283,0.6326,0.6269,0.627,0.6271,0,0.5812,0.5848,0.5912,0.5952,0.5968,0.6,0.6041,0.6073,0.6111,0.6124,0.6153,0.6165,0.6208,0.6194,0.6254,0.6231,0.6253,0.6269,0.6271,0.6276,0.626,0.6288,0.634,0.6347,0.6281,0.628,0.6279,0,0.5834,0.5898,0.5944,0.5963,0.6012,0.6033,0.6055,0.6091,0.6116,0.6152,0.6169,0.621,0.6233,0.6265,0.6288,0.6276,0.6345,0.6333,0.6357,0.6357,0.6371,0.637,0.6427,0.6386,0.6386,0.6386,0.6386,0,0.5881,0.592,0.5954,0.5983,0.6026,0.6049,0.6091,0.6114,0.6145,0.6179,0.6192,0.6223,0.6251,0.6287,0.6305,0.6351,0.6362,0.6374,0.6378,0.6372,0.637,0.6386,0.6384,0.6388,0.6387,0.6387,0.6387,0,0.5912,0.5937,0.5988,0.603,0.6042,0.6072,0.6108,0.6137,0.6158,0.62,0.6211,0.6244,0.6286,0.6312,0.6366,0.6378,0.6429,0.6433,0.6416,0.6418,0.644,0.6437,0.6509,0.652,0.6472,0.6472,0.6473,0,0.5941,0.597,0.6015,0.6038,0.606,0.6097,0.6122,0.6145,0.6171,0.6215,0.6238,0.6281,0.6316,0.6383,0.6412,0.6453,0.6458,0.648,0.6464,0.6457,0.6457,0.6455,0.6458,0.6482,0.6483,0.6483,0.6483,0,0.5988,0.5999,0.6034,0.6074,0.6103,0.6136,0.6169,0.6187,0.6216,0.6244,0.6287,0.6314,0.6368,0.641,0.6454,0.6477,0.6485,0.6488,0.6496,0.649,0.6479,0.6484,0.6422,0.6486,0.6486,0.6486,0.6486,0.6486,0.6018,0.6045,0.6081,0.612,0.6146,0.6177,0.6205,0.6229,0.6265,0.631,0.6322,0.6366,0.6403,0.6462,0.6486,0.6522,0.6519,0.653,0.6532,0.6535,0.6535,0.6473,0.653,0.653,0.653,0.653,0.653,0,0.6066,0.6089,0.6125,0.6169,0.62,0.6205,0.6241,0.6266,0.6305,0.6338,0.6372,0.6421,0.6462,0.6494,0.6536,0.6559,0.6563,0.6569,0.6567,0.6572,0.6535,0.6524,0.6564,0.6564,0.6564,0.6564,0.6564,0.6564,0.6094,0.6139,0.6154,0.6213,0.6236,0.6279,0.6299,0.6327,0.6354,0.6407,0.6441,0.6462,0.6494,0.6539,0.6577,0.6586,0.66,0.6605,0.6614,0.6579,0.6575,0.6571,0.6561,0.6608,0.6608,0.6648,0.6648,0.6649]},{"header":{"parameterUnit":"m.s-1","parameterCategory":1,"la1":30.2991,"la2":30.254,"lo1":-89.0895,"lo2":-89.0444,"dy":0.0017,"dx":0.0017,"nx":28,"ny":28,"refTime":"2023-10-22T09:00:00:Z","depth":0,"parameterNumber":3,"parameterNumberName":"V-component_of_WINDS"},"data":[0,0,0,0,0,0,0,0,0,0,0,0,0,0,0,0,0,0,0,0,0,0,0,0,0,0,0,0,0,0,0,0,0,0,0,0,0,0,0,0,0,0,0,0,0,0,0,0,0,0,0,0,0,0,0,0,0,0,1.7137,1.7136,0,1.7082,1.7081,1.7081,1.7025,1.7024,1.7023,1.7022,1.6963,1.6962,1.6961,0,0,0,0,0,0,0,0,0,0,0,0,0,1.719,1.7189,1.7137,1.7136,1.7135,1.7082,1.7081,1.7081,1.7025,1.7024,1.7023,1.7022,1.6963,1.6962,1.6961,0,0,0,0,0,0,0,0,0,0,0,0,0,1.7154,1.7189,1.7137,1.7101,1.7097,1.7082,1.7081,1.708,1.7025,1.7024,1.7023,1.7022,1.6964,1.6962,1.6961,1.6976,0,0,1.6957,1.6957,0,0,0,0,0,0,0,0,1.7156,1.7152,1.7107,1.7103,1.7099,1.7059,1.7078,1.7045,1.7025,1.7052,1.7022,1.7021,1.6996,1.6992,1.6984,1.6973,1.6971,1.6957,1.6956,1.6956,1.6955,0,0,0,0,0,0,0,1.7159,1.7154,1.7115,1.7106,1.7102,1.7087,1.7081,1.7072,1.7031,1.705,1.7046,1.704,1.6993,1.6985,1.6982,1.697,1.6957,1.6956,1.6955,1.6955,1.6969,1.697,0,0,0,0,0,0,1.7167,1.7157,1.7117,1.7113,1.7126,1.7087,1.708,1.7073,1.7031,1.7023,1.7041,1.7038,1.6988,1.6984,1.698,1.6994,1.6956,1.6955,1.6954,1.6967,1.6969,1.697,0,0,0,0,0,0,1.7169,1.7164,1.7119,1.7134,1.7127,1.7087,1.708,1.7073,1.7064,1.7024,1.7016,1.7041,1.6987,1.6982,1.6978,1.6992,1.6954,1.6953,1.6966,1.6968,1.6969,1.7024,0,0,0,0,0,0,1.717,1.7165,1.7171,1.7134,1.7126,1.7119,1.7081,1.7072,1.7063,1.7058,1.7022,1.7015,1.6986,1.698,1.6976,1.6989,1.6952,1.6965,1.6967,1.6969,1.7021,1.7028,1.7033,0,0,0,0,0,1.7172,1.7188,1.7171,1.7167,1.7133,1.712,1.7115,1.7082,1.7064,1.7069,1.7044,1.7016,1.6991,1.698,1.6975,1.6988,1.6964,1.6966,1.6969,1.7018,1.7026,1.7033,0,0,0,0,0,0,1.7225,1.7182,1.7164,1.7168,1.7148,1.711,1.7116,1.7092,1.7076,1.7071,1.703,1.7023,1.7024,1.7005,1.6994,1.7,1.6973,1.6975,1.7012,1.702,1.7026,1.703,1.6951,0,0,0,0,0,1.7238,1.7231,1.7193,1.72,1.7192,1.7156,1.7148,1.7125,1.7102,1.7093,1.7067,1.7046,1.7033,1.7025,1.7011,1.7018,1.7009,1.7024,1.7031,1.7036,1.7038,1.704,1.7047,1.6979,1.6979,1.6978,0,0,1.7262,1.7238,1.7236,1.7211,1.7192,1.7186,1.7149,1.7143,1.7138,1.7092,1.7087,1.7068,1.704,1.7042,1.7042,1.7027,1.7055,1.7039,1.7044,1.7043,1.7044,1.705,1.7056,1.698,1.698,1.698,0,0,1.7305,1.7286,1.729,1.7273,1.7247,1.7223,1.7224,1.719,1.7175,1.717,1.7136,1.7128,1.7107,1.7089,1.7078,1.7114,1.7088,1.7111,1.7143,1.7146,1.7151,1.7156,1.7169,1.7174,1.7113,1.7113,1.7113,0,1.7339,1.7329,1.7295,1.7292,1.7282,1.7241,1.7245,1.723,1.72,1.7193,1.7177,1.715,1.7129,1.7126,1.7136,1.7127,1.7127,1.7114,1.7153,1.7157,1.7161,1.7173,1.7179,1.7116,1.7116,1.7115,1.7115,0,1.7372,1.7366,1.7372,1.7346,1.7336,1.7336,1.7302,1.7296,1.7274,1.7251,1.7246,1.722,1.72,1.7197,1.7175,1.7191,1.7183,1.7161,1.7133,1.7171,1.7182,1.7186,1.712,1.7119,1.7118,1.7117,0,0,1.7446,1.7401,1.7404,1.7392,1.736,1.7354,1.7353,1.7334,1.733,1.7311,1.7308,1.7292,1.7271,1.7258,1.7233,1.7236,1.7267,1.7213,1.7212,1.7224,1.7284,1.7301,1.7307,1.725,1.725,1.7251,1.7286,0,1.7483,1.7479,1.7448,1.7453,1.7446,1.7408,1.7407,1.7387,1.7366,1.7357,1.7333,1.7322,1.7296,1.7288,1.7289,1.7263,1.7278,1.726,1.7246,1.7246,1.7255,1.7313,1.7331,1.7365,1.729,1.7291,1.7291,0,1.7525,1.751,1.7514,1.7483,1.7479,1.7479,1.746,1.7452,1.7428,1.7413,1.7399,1.7371,1.7367,1.7341,1.7334,1.7322,1.7315,1.7302,1.7302,1.7299,1.7271,1.7312,1.7375,1.7381,1.7298,1.7297,1.7297,0,1.7579,1.7559,1.756,1.755,1.7514,1.7514,1.7499,1.7474,1.7466,1.7449,1.7443,1.7425,1.7416,1.7402,1.7371,1.7355,1.7368,1.7339,1.7354,1.7355,1.7358,1.7359,1.7422,1.7354,1.7354,1.7353,1.7353,0,1.7623,1.7628,1.7583,1.7584,1.7587,1.7552,1.7556,1.7537,1.7515,1.7511,1.7476,1.7472,1.743,1.7421,1.7396,1.7395,1.739,1.7377,1.7371,1.7381,1.7382,1.7375,1.7372,1.7355,1.7355,1.7354,1.7354,0,1.7684,1.7655,1.7652,1.7619,1.761,1.7614,1.7585,1.7583,1.756,1.7555,1.7551,1.7515,1.7503,1.7471,1.7449,1.7433,1.7438,1.7425,1.7446,1.7442,1.746,1.7459,1.7521,1.7527,1.7455,1.7455,1.7456,0,1.7714,1.7717,1.7684,1.7679,1.7665,1.7657,1.7649,1.7614,1.7606,1.758,1.7582,1.7567,1.7554,1.7536,1.7507,1.7491,1.7478,1.7501,1.7475,1.7485,1.7478,1.7479,1.7479,1.7506,1.7507,1.7508,1.7509,0,1.7771,1.7757,1.7747,1.7731,1.7722,1.7708,1.7692,1.7689,1.765,1.7643,1.7631,1.7621,1.76,1.7586,1.7566,1.7549,1.7522,1.7517,1.752,1.753,1.7543,1.7536,1.7462,1.7516,1.7515,1.7515,1.7514,1.7514,1.7818,1.7819,1.7796,1.7785,1.777,1.7756,1.7753,1.7731,1.772,1.7702,1.7681,1.7672,1.7648,1.7618,1.7603,1.7594,1.758,1.7584,1.7585,1.7587,1.7592,1.7544,1.759,1.759,1.759,1.759,1.7589,0,1.7873,1.7857,1.7848,1.7827,1.7819,1.7796,1.7777,1.7772,1.7764,1.7745,1.7733,1.7719,1.7705,1.7676,1.766,1.7658,1.7646,1.7655,1.7655,1.7651,1.7605,1.7604,1.7665,1.7665,1.7665,1.7665,1.7665,1.7665,1.7902,1.7902,1.7885,1.7877,1.786,1.7852,1.7843,1.783,1.7814,1.7801,1.779,1.7772,1.7748,1.773,1.7716,1.7708,1.7703,1.7717,1.7705,1.7662,1.7655,1.7648,1.7647,1.7716,1.7716,1.7752,1.7752,1.7752]}]]